Welcome to the New NWS' Forecast!
Most changes are behind the scenes, but click here for differences you might notice.

Regional Weather Roundup (RWR)

Issued by Gray - Portland, ME (GYX)

                            
472 
ASUS41 KGYX 060910
RWRGYX
WEATHER ROUNDUP FOR MAINE AND NEW HAMPSHIRE
NATIONAL WEATHER SERVICE GRAY ME
500 AM EDT SUN AUG 06 2017

MEZ002-005-006-010-012-015-018-020-021-024-026-027-029-061000-
MAINE
  
CITY           SKY/WX    TMP DP  RH WIND       PRES   REMARKS
PORTLAND       CLEAR     59  57  93 W6        29.84R                  
SANFORD        PTCLDY    58  54  86 W9        29.86R                  
BAR HARBOR     CLOUDY    64  64 100 CALM      29.79S                  
WISCASSET      PTCLDY    63  62  97 CALM      29.83R                  
ROCKLAND       FOG       63  63 100 NW3       29.80S VSB 1/2          
FRYEBURG       CLEAR     55  55 100 CALM      29.85R                  
LEWISTONAUBURN CLEAR     59  58  96 CALM      29.84R                  
AUGUSTA        MOCLDY    61  57  87 NW6       29.82R                  
WATERVILLE     MOCLDY    61  58  90 CALM      29.79R                  
BANGOR         CLOUDY    65  63  93 W3        29.80S FOG              
GREENVILLE       N/A     58  57  97 NW6       29.80S                  
MILLINOCKET    PTCLDY    62  62 100 CALM      29.79R                  
HOULTON        LGT RAIN  64  64 100 S3        29.76S FOG              
PRESQUE ISLE   CLOUDY    60  60 100 CALM      29.77S                  
FRENCHVILLE    CLOUDY    59  58  96 SE6       29.76F                  
CARIBOU        FOG       60  58  92 NW3       29.75F VSB 1/2          
$$

NHZ002-005-008-009-011-012-014-061000-
NEW HAMPSHIRE
  
CITY           SKY/WX    TMP DP  RH WIND       PRES   REMARKS
PORTSMOUTH     PTCLDY    60  56  85 W5        29.85R                  
ROCHESTER      CLEAR     57  52  83 CALM      29.86R                  
MANCHESTER     CLEAR     60  51  72 W6        29.88R                  
CONCORD        CLEAR     58  51  78 W7        29.89R                  
LACONIA        CLEAR     55  54  96 W5        29.89R                  
PLYMOUTH       FOG       51  50  95 CALM      29.88S VSB 3/4          
BERLIN         PTCLDY    55  50  83 CALM      29.87R                  
WHITEFIELD     PTCLDY    56  53  90 SW3       29.88R                  
JAFFREY        CLEAR     58  51  78 W6        29.92R                  
KEENE          CLEAR     52  52 100 S5        29.94R                  
LEBANON        CLEAR     54  52  93 CALM      29.90R                  
MT WASHINGTON  FOG       39  39 100 W53G62      N/A  VSB 0            
$$

VTZ005-007-008-061000-
VERMONT
  
CITY           SKY/WX    TMP DP  RH WIND       PRES   REMARKS
ST JOHNSBURY     N/A     56  56 100 MISG      29.87R                  
MONTPELIER     MOCLDY    59  50  72 W7        29.93R                  
BURLINGTON     CLEAR     62  49  62 W17G26    29.91R                  
$$

MAZ007-012-024-CTZ003-RIZ002-NYZ038-NYZ072-061000-
SOUTHERN NEW ENGLAND AND NY
  
CITY           SKY/WX    TMP DP  RH WIND       PRES   REMARKS
BOSTON         PTCLDY    64  54  69 W12       29.89S                  
WORCESTER      CLEAR     57  47  69 W14       29.92R                  
NANTUCKET      CLEAR     67  58  72 NW12      29.90R                  
PROVIDENCE     CLEAR     61  56  83 W8        29.93R                  
HARTFORD       PTCLDY    62  52  69 W6        29.96R                  
ALBANY         PTCLDY    58  48  69 W5        30.00R                  
NEW YORK CITY  PTCLDY    67  53  61 NW13      30.01                   
$$

ANZ081-ANZ082-ANZ150-NHZ014-MEZ023>029-061000-
COASTAL MARINE OBSERVATIONS
  
STATION/POSITION TIME  TEMP    WIND        PRES    WAVE
                       AIR SEA DIR/SP/G            HT/PER
                 (UTC) (F)     (DEG/KT/KT) (MB)    (FT/S)
MOUNT DESERT ROC 0900   60                 1008.7R
MATINICUS ROCK   0900   60     320/  8/  9 1008.8R
ISLE OF SHOALS   0900   62     270/ 14/ 17 1010.7R
JEFFREYS LEDGE   0806      68                N/A     4/ 8
CASHES LEDGE BUO 0750   66 68              1008.8    4/ 8
GEORGES BANK BUO 0750   74 75              1009.7    4/ 7
$$

.............KEY..............
   WCI - WIND CHILL
   TC  - TEMPERATURE IN CELSIUS
   VSB - VISIBILITY IN MILES
   HX  - HEAT INDEX
   FAIR- INDICATES FEW OR NO CLOUDS BELOW 12,000 FT, WITH NO 
         SIGNIFICANT WEATHER AND/OR OBSTRUCTIONS TO VISIBILITY.